When you browse on this site, cookies collect data to enhance your experience and personalize the content and advertising you see.
Visit our Privacy Policy to learn more. By continuing to use the site, you agree to this use of cookies and data.
  • în România
  • Lista ţărilor
  • Pe 7 zile
  • Temperatura apei
  • Hartă satelitară
  • Meteo pe hartă
  • Widget-uri
  • user-avatar
    Intrare

    Meteo pe oră la Karamyshka

    Astăzi, 21 Martie, Joi

    Timp Temperatura Precipitaţii Vânt Presiune Umiditate
    00:00 -2°C° 0 mm 2 m/s 751 mmHg 98%
    01:00 -2°C° 0 mm 2 m/s 750 mmHg 98%
    02:00 -2°C° 0 mm 2 m/s 750 mmHg 97%
    03:00 -1°C° 0 mm 2 m/s 749 mmHg 98%
    04:00 -1°C° 0 mm 2 m/s 749 mmHg 98%
    05:00 -1°C° 0 mm 2 m/s 749 mmHg 99%
    06:00 +1°C° 0 mm 2 m/s 749 mmHg 99%
    07:00 +1°C° 0 mm 2 m/s 749 mmHg 99%
    08:00 +1°C° 0 mm 2 m/s 749 mmHg 99%
    09:00 +1°C° 0 mm 2 m/s 748 mmHg 99%
    10:00 +1°C° 0.1 mm 2 m/s 748 mmHg 99%
    11:00 +1°C° 0.1 mm 2 m/s 748 mmHg 100%
    12:00 +2°C° 0.1 mm 2 m/s 748 mmHg 100%
    13:00 +2°C° 0.2 mm 2 m/s 748 mmHg 100%
    14:00 +2°C° 0.2 mm 2 m/s 748 mmHg 100%
    15:00 +1°C° 0 mm 2 m/s 747 mmHg 99%
    16:00 +1°C° 0 mm 2 m/s 747 mmHg 99%
    17:00 +1°C° 0 mm 2 m/s 747 mmHg 99%
    18:00 +1°C° 0 mm 2 m/s 747 mmHg 98%
    19:00 +1°C° 0 mm 2 m/s 747 mmHg 98%
    20:00 +1°C° 0 mm 2 m/s 747 mmHg 97%
    21:00 0°C° 0 mm 3 m/s 747 mmHg 97%
    22:00 -1°C° 0 mm 3 m/s 747 mmHg 96%
    23:00 -1°C° 0 mm 3 m/s 747 mmHg 96%

    Mâine, 22 Martie, Vineri

    Timp Temperatura Precipitaţii Vânt Presiune Umiditate
    00:00 -2°C° 0 mm 2 m/s 747 mmHg 95%
    01:00 -2°C° 0 mm 2 m/s 747 mmHg 95%
    02:00 -3°C° 0 mm 2 m/s 747 mmHg 95%
    03:00 -4°C° 0 mm 2 m/s 746 mmHg 94%
    04:00 -4°C° 0 mm 2 m/s 746 mmHg 94%
    05:00 -4°C° 0 mm 2 m/s 746 mmHg 93%
    06:00 -4°C° 0 mm 2 m/s 746 mmHg 93%
    07:00 -3°C° 0 mm 2 m/s 746 mmHg 92%
    08:00 -2°C° 0 mm 2 m/s 746 mmHg 91%
    09:00 -2°C° 0 mm 2 m/s 746 mmHg 90%
    10:00 -1°C° 0 mm 2 m/s 746 mmHg 93%
    11:00 -1°C° 0 mm 2 m/s 745 mmHg 95%
    12:00 +1°C° 0 mm 1 m/s 745 mmHg 98%
    13:00 -1°C° 0 mm 2 m/s 745 mmHg 98%
    14:00 -1°C° 0 mm 2 m/s 744 mmHg 98%
    15:00 -1°C° 0 mm 2 m/s 744 mmHg 98%
    16:00 -1°C° 0.1 mm 2 m/s 744 mmHg 96%
    17:00 -1°C° 0.1 mm 2 m/s 743 mmHg 94%
    18:00 -2°C° 0.1 mm 2 m/s 743 mmHg 92%
    19:00 -2°C° 0 mm 2 m/s 743 mmHg 92%
    20:00 -2°C° 0 mm 2 m/s 742 mmHg 92%
    21:00 -3°C° 0 mm 2 m/s 742 mmHg 92%
    22:00 -3°C° 0 mm 2 m/s 742 mmHg 92%
    23:00 -4°C° 0 mm 2 m/s 741 mmHg 91%

    Poimâine, 23 Martie, Sâmbătă

    Timp Temperatura Precipitaţii Vânt Presiune Umiditate
    00:00 -5°C° 0 mm 2 m/s 741 mmHg 90%
    01:00 -4°C° 0 mm 2 m/s 741 mmHg 91%
    02:00 -5°C° 0 mm 3 m/s 741 mmHg 91%
    03:00 -4°C° 0 mm 3 m/s 741 mmHg 92%
    04:00 -5°C° 0 mm 3 m/s 741 mmHg 93%
    05:00 -5°C° 0 mm 4 m/s 741 mmHg 93%
    06:00 -5°C° 0 mm 4 m/s 741 mmHg 93%
    07:00 -5°C° 0 mm 4 m/s 741 mmHg 93%
    08:00 -4°C° 0 mm 4 m/s 742 mmHg 93%
    09:00 -4°C° 0 mm 5 m/s 742 mmHg 92%
    10:00 -4°C° 0.1 mm 5 m/s 742 mmHg 94%
    11:00 -4°C° 0.1 mm 5 m/s 743 mmHg 95%
    12:00 -2°C° 0.1 mm 5 m/s 743 mmHg 96%
    13:00 -2°C° 0.4 mm 5 m/s 743 mmHg 96%
    14:00 -2°C° 0.4 mm 5 m/s 743 mmHg 95%
    15:00 -2°C° 0.4 mm 5 m/s 743 mmHg 95%
    16:00 -2°C° 0.5 mm 5 m/s 743 mmHg 95%
    17:00 -2°C° 0.5 mm 5 m/s 744 mmHg 95%
    18:00 -2°C° 0.5 mm 5 m/s 744 mmHg 95%
    19:00 -2°C° 0.7 mm 5 m/s 744 mmHg 95%
    20:00 -2°C° 0.7 mm 4 m/s 745 mmHg 96%
    21:00 -2°C° 0.7 mm 4 m/s 745 mmHg 96%
    22:00 -2°C° 0.5 mm 4 m/s 745 mmHg 96%
    23:00 -2°C° 0.5 mm 4 m/s 745 mmHg 97%

    24 Martie, Duminică

    Timp Temperatura Precipitaţii Vânt Presiune Umiditate
    00:00 -2°C° 0.5 mm 3 m/s 745 mmHg 97%
    01:00 -2°C° 0 mm 3 m/s 746 mmHg 97%
    02:00 -2°C° 0 mm 2 m/s 746 mmHg 97%
    03:00 -2°C° 0 mm 2 m/s 746 mmHg 97%
    04:00 0°C° 0 mm 1 m/s 746 mmHg 97%
    05:00 0°C° 0 mm 1 m/s 746 mmHg 97%
    06:00 -1°C° 0 mm 0 m/s 746 mmHg 97%
    07:00 -1°C° 0 mm 0 m/s 746 mmHg 98%
    08:00 0°C° 0 mm 0 m/s 746 mmHg 99%
    09:00 0°C° 0 mm 0 m/s 746 mmHg 99%
    10:00 +1°C° 0 mm 1 m/s 746 mmHg 99%
    11:00 +1°C° 0 mm 1 m/s 746 mmHg 99%
    12:00 -1°C° 0 mm 2 m/s 746 mmHg 99%
    13:00 -1°C° 0 mm 2 m/s 746 mmHg 99%
    14:00 -1°C° 0 mm 2 m/s 745 mmHg 99%
    15:00 -1°C° 0 mm 3 m/s 745 mmHg 99%
    16:00 -1°C° 0 mm 3 m/s 745 mmHg 98%
    17:00 -1°C° 0 mm 3 m/s 745 mmHg 97%
    18:00 -2°C° 0 mm 2 m/s 745 mmHg 95%
    19:00 -2°C° 0 mm 2 m/s 744 mmHg 95%
    20:00 -2°C° 0 mm 2 m/s 744 mmHg 96%
    21:00 -3°C° 0 mm 2 m/s 744 mmHg 96%
    22:00 -4°C° 0 mm 3 m/s 744 mmHg 96%
    23:00 -4°C° 0 mm 3 m/s 743 mmHg 96%

    25 Martie, Luni

    Timp Temperatura Precipitaţii Vânt Presiune Umiditate
    00:00 -4°C° 0 mm 3 m/s 743 mmHg 96%
    01:00 -4°C° 0 mm 3 m/s 742 mmHg 96%
    02:00 -4°C° 0 mm 3 m/s 742 mmHg 97%
    03:00 -4°C° 0 mm 3 m/s 741 mmHg 97%
    04:00 -4°C° 0 mm 3 m/s 741 mmHg 97%
    05:00 -4°C° 0 mm 3 m/s 741 mmHg 96%
    06:00 -4°C° 0 mm 3 m/s 740 mmHg 96%
    07:00 -4°C° 0 mm 3 m/s 740 mmHg 96%
    08:00 -2°C° 0 mm 3 m/s 740 mmHg 96%
    09:00 -2°C° 0 mm 3 m/s 740 mmHg 95%
    10:00 -2°C° 0 mm 4 m/s 740 mmHg 97%
    11:00 -2°C° 0 mm 4 m/s 739 mmHg 98%
    12:00 -2°C° 0 mm 4 m/s 739 mmHg 99%
    13:00 -2°C° 0.1 mm 4 m/s 739 mmHg 99%
    14:00 -2°C° 0.1 mm 4 m/s 739 mmHg 99%
    15:00 -1°C° 0.1 mm 4 m/s 739 mmHg 99%
    16:00 -2°C° 0 mm 4 m/s 739 mmHg 96%
    17:00 -2°C° 0 mm 4 m/s 740 mmHg 94%
    18:00 -1°C° 0 mm 3 m/s 740 mmHg 91%
    19:00 -2°C° 0 mm 3 m/s 740 mmHg 91%
    20:00 -4°C° 0 mm 3 m/s 741 mmHg 90%
    21:00 -4°C° 0 mm 3 m/s 741 mmHg 90%
    22:00 -5°C° 0 mm 3 m/s 742 mmHg 90%
    23:00 -5°C° 0 mm 3 m/s 742 mmHg 91%

    26 Martie, Marţi

    Timp Temperatura Precipitaţii Vânt Presiune Umiditate
    00:00 -7°C° 0 mm 4 m/s 742 mmHg 92%
    01:00 -7°C° 0 mm 3 m/s 742 mmHg 92%
    02:00 -7°C° 0 mm 3 m/s 743 mmHg 92%
    03:00 -7°C° 0 mm 3 m/s 743 mmHg 92%
    04:00 -7°C° 0 mm 3 m/s 743 mmHg 92%
    05:00 -8°C° 0 mm 3 m/s 744 mmHg 92%
    06:00 -8°C° 0 mm 3 m/s 744 mmHg 92%
    07:00 -7°C° 0 mm 3 m/s 745 mmHg 92%
    08:00 -6°C° 0 mm 3 m/s 745 mmHg 92%
    09:00 -5°C° 0 mm 3 m/s 746 mmHg 91%
    10:00 -4°C° 0 mm 3 m/s 746 mmHg 92%
    11:00 -2°C° 0 mm 3 m/s 746 mmHg 93%
    12:00 -2°C° 0 mm 3 m/s 747 mmHg 94%
    13:00 -1°C° 0 mm 3 m/s 747 mmHg 93%
    14:00 -1°C° 0 mm 3 m/s 747 mmHg 93%
    15:00 -1°C° 0 mm 3 m/s 747 mmHg 92%
    16:00 -2°C° 0 mm 2 m/s 747 mmHg 93%
    17:00 -3°C° 0 mm 2 m/s 747 mmHg 93%
    18:00 -4°C° 0 mm 2 m/s 747 mmHg 93%
    19:00 -4°C° 0 mm 2 m/s 747 mmHg 91%
    20:00 -5°C° 0 mm 2 m/s 747 mmHg 89%
    21:00 -5°C° 0 mm 2 m/s 748 mmHg 88%
    22:00 -6°C° 0 mm 2 m/s 747 mmHg 86%
    23:00 -6°C° 0 mm 2 m/s 747 mmHg 84%
    Arată mai mult